Location: Erdweis
(48.5167°N, 15.3500°E)
Time: 06:37:55
(UTC+00:00)

Okean 2 Rocket - Pass Details

Date: 18 September 2020
Orbit: 616 x 642 km, 82.5° (Epoch: 23 October)

Event Time Altitude Azimuth Distance (km) Brightness Sun altitude
Rises 18:03:13 0° 168° (SSE) 2,934 6.3 -10.5°
Reaches altitude 10° 18:05:33 10° 161° (SSE) 2,027 5.4 -10.8°
Maximum altitude 18:09:45 41° 92° (E) 934 3.5 -11.5°
Drops below altitude 10° 18:13:58 10° 23° (NNE) 2,030 5.6 -12.2°
Sets 18:16:18 0° 16° (NNE) 2,939 6.5 -12.6°
